[[{"header":{"parameterUnit":"m.s-1","parameterCategory":1,"la1":30.2991,"la2":30.254,"lo1":-89.0895,"lo2":-89.0444,"dy":0.0017,"dx":0.0017,"nx":28,"ny":28,"refTime":"2025-02-25T03:00:00:Z","depth":0,"parameterNumber":2,"parameterNumberName":"U-component_of_WINDS"},"data":[0,0,0,0,0,0,0,0,0,0,0,0,0,0,0,0,0,0,0,0,0,0,0,0,0,0,0,0,0,0,0,0,0,0,0,0,0,0,0,0,0,0,0,0,0,0,0,0,0,0,0,0,0,0,0,0,0,0,0.4618,0.4619,0,0.4725,0.4726,0.4727,0.477,0.4769,0.4769,0.4769,0.4882,0.4885,0.4888,0,0,0,0,0,0,0,0,0,0,0,0,0,0.4456,0.4458,0.4618,0.4619,0.462,0.4724,0.4726,0.4727,0.477,0.4769,0.4769,0.4769,0.488,0.4884,0.4888,0,0,0,0,0,0,0,0,0,0,0,0,0,0.4541,0.4459,0.4617,0.4654,0.4658,0.4724,0.4726,0.4728,0.477,0.4769,0.4769,0.4769,0.4879,0.4884,0.4889,0.4927,0,0,0.4904,0.4906,0,0,0,0,0,0,0,0,0.4536,0.4546,0.4647,0.4651,0.4656,0.4733,0.471,0.4795,0.477,0.4728,0.4769,0.4768,0.4833,0.4841,0.4863,0.4933,0.4937,0.4904,0.4907,0.4909,0.4911,0,0,0,0,0,0,0,0.453,0.4542,0.466,0.4649,0.4654,0.4667,0.4678,0.4726,0.4781,0.4731,0.4734,0.4746,0.4835,0.4858,0.4865,0.4939,0.4904,0.4908,0.4911,0.4913,0.505,0.5051,0,0,0,0,0,0,0.4517,0.4537,0.4657,0.4663,0.4594,0.467,0.4683,0.4709,0.4781,0.4791,0.4747,0.4748,0.485,0.486,0.487,0.4921,0.4909,0.4914,0.4917,0.5049,0.505,0.5051,0,0,0,0,0,0,0.4514,0.4527,0.4652,0.4601,0.4618,0.4673,0.4702,0.4711,0.4734,0.4792,0.4803,0.4759,0.485,0.4863,0.4913,0.4926,0.4916,0.492,0.5049,0.505,0.5051,0.5024,0,0,0,0,0,0,0.4509,0.4526,0.4539,0.4601,0.462,0.4692,0.4703,0.4714,0.4742,0.4745,0.4807,0.4817,0.485,0.4906,0.4918,0.4932,0.4924,0.5048,0.5049,0.505,0.5024,0.5024,0.5024,0,0,0,0,0,0.4503,0.4528,0.454,0.4554,0.4638,0.4693,0.4704,0.4741,0.4742,0.4758,0.4796,0.4815,0.4923,0.491,0.4925,0.4941,0.5047,0.5049,0.505,0.5024,0.5024,0.5024,0,0,0,0,0,0,0.4466,0.4536,0.4551,0.4596,0.4638,0.47,0.472,0.4739,0.4783,0.4784,0.4829,0.4843,0.489,0.4921,0.4906,0.4984,0.4987,0.4991,0.4962,0.4962,0.4962,0.4954,0.4928,0,0,0,0,0,0.4464,0.45,0.456,0.4595,0.4615,0.4664,0.4689,0.4714,0.476,0.4778,0.482,0.4865,0.491,0.4938,0.4981,0.5029,0.5045,0.5048,0.5047,0.5047,0.5051,0.5081,0.5084,0.5056,0.5056,0.5056,0,0,0.4458,0.4501,0.4522,0.4588,0.4624,0.4663,0.4678,0.4718,0.4749,0.4785,0.4835,0.4868,0.4921,0.4971,0.4995,0.4998,0.5062,0.5049,0.5048,0.5052,0.5083,0.5085,0.5088,0.5057,0.5057,0.5057,0,0,0.4469,0.4504,0.4537,0.4573,0.4627,0.466,0.4668,0.4728,0.4751,0.4802,0.4831,0.4868,0.4943,0.4981,0.501,0.5038,0.5058,0.5051,0.5051,0.508,0.5082,0.5085,0.5097,0.51,0.5055,0.5054,0.5054,0,0.4455,0.4514,0.4552,0.4592,0.4621,0.4656,0.4692,0.4725,0.4791,0.4811,0.4814,0.491,0.4949,0.5009,0.5016,0.5038,0.5051,0.5044,0.5079,0.5081,0.5084,0.5096,0.51,0.5053,0.5054,0.5054,0.5054,0,0.4496,0.4536,0.4557,0.462,0.4652,0.4689,0.4736,0.4764,0.4787,0.4821,0.4875,0.4922,0.4978,0.4994,0.5017,0.5059,0.5059,0.507,0.5073,0.5085,0.5097,0.5102,0.5052,0.5052,0.5053,0.5053,0,0,0.4484,0.4569,0.4576,0.4606,0.467,0.4703,0.4743,0.4797,0.4821,0.4867,0.4903,0.4967,0.4978,0.5011,0.5039,0.5065,0.5087,0.5073,0.5075,0.5075,0.5139,0.5131,0.5135,0.5101,0.5102,0.5103,0.5135,0,0.4503,0.4575,0.4613,0.4669,0.4709,0.4744,0.478,0.4824,0.4857,0.4897,0.4935,0.498,0.499,0.5011,0.5037,0.5078,0.5101,0.5077,0.5137,0.5139,0.5122,0.5141,0.5132,0.516,0.514,0.514,0.5141,0,0.4535,0.4579,0.464,0.4702,0.472,0.475,0.4805,0.4842,0.4894,0.4917,0.4955,0.4983,0.503,0.5031,0.5097,0.508,0.5108,0.5132,0.5134,0.5141,0.514,0.515,0.517,0.5174,0.5149,0.5148,0.5147,0,0.4521,0.4597,0.4644,0.4668,0.4741,0.4762,0.4794,0.4846,0.4877,0.4925,0.4946,0.4999,0.5028,0.5069,0.5112,0.5109,0.5176,0.5179,0.5198,0.5196,0.5209,0.5208,0.5235,0.5226,0.5226,0.5226,0.5226,0,0.4539,0.4575,0.4639,0.4667,0.471,0.4755,0.4796,0.4831,0.4877,0.4915,0.495,0.4985,0.5039,0.5082,0.5116,0.5168,0.518,0.5202,0.521,0.5199,0.5196,0.5217,0.5217,0.5227,0.5227,0.5227,0.5227,0,0.4531,0.4575,0.4628,0.4693,0.4711,0.4739,0.4796,0.4827,0.4863,0.4911,0.4925,0.4982,0.5035,0.5082,0.5152,0.5175,0.5228,0.5238,0.5209,0.5214,0.523,0.5228,0.5272,0.5281,0.5265,0.5265,0.5265,0,0.4539,0.4568,0.4636,0.4664,0.4695,0.4738,0.477,0.4817,0.4849,0.4913,0.4936,0.4991,0.5038,0.5121,0.517,0.5225,0.5237,0.5249,0.5246,0.5234,0.5239,0.5237,0.5241,0.5248,0.5248,0.5248,0.5248,0,0.455,0.4571,0.4614,0.4667,0.4705,0.4748,0.4794,0.4815,0.487,0.4905,0.4959,0.4995,0.5068,0.5123,0.5183,0.5219,0.5244,0.5249,0.5256,0.5245,0.5227,0.5238,0.5209,0.5247,0.5248,0.5248,0.5248,0.5248,0.4551,0.4579,0.4632,0.4681,0.472,0.4762,0.4795,0.4835,0.4881,0.4942,0.4968,0.5023,0.5079,0.5163,0.5198,0.5244,0.5249,0.5259,0.5262,0.5263,0.5262,0.522,0.5255,0.5255,0.5255,0.5256,0.5256,0,0.4564,0.46,0.4645,0.4707,0.4747,0.4766,0.4818,0.485,0.4898,0.4947,0.4993,0.5057,0.5111,0.5166,0.5224,0.525,0.5264,0.5264,0.5263,0.5271,0.5254,0.5242,0.5253,0.5253,0.5253,0.5253,0.5253,0.5253,0.4575,0.4624,0.4652,0.4723,0.476,0.4813,0.4842,0.4882,0.4922,0.4991,0.5036,0.5071,0.5124,0.5186,0.5239,0.5254,0.5274,0.5272,0.529,0.5272,0.5272,0.5272,0.5261,0.5275,0.5275,0.5304,0.5304,0.5304]},{"header":{"parameterUnit":"m.s-1","parameterCategory":1,"la1":30.2991,"la2":30.254,"lo1":-89.0895,"lo2":-89.0444,"dy":0.0017,"dx":0.0017,"nx":28,"ny":28,"refTime":"2025-02-25T03:00:00:Z","depth":0,"parameterNumber":3,"parameterNumberName":"V-component_of_WINDS"},"data":[0,0,0,0,0,0,0,0,0,0,0,0,0,0,0,0,0,0,0,0,0,0,0,0,0,0,0,0,0,0,0,0,0,0,0,0,0,0,0,0,0,0,0,0,0,0,0,0,0,0,0,0,0,0,0,0,0,0,-1.6882,-1.6883,0,-1.6989,-1.6991,-1.6992,-1.7058,-1.7058,-1.7059,-1.7059,-1.7163,-1.7165,-1.7168,0,0,0,0,0,0,0,0,0,0,0,0,0,-1.6731,-1.6733,-1.6882,-1.6883,-1.6885,-1.6989,-1.6991,-1.6992,-1.7058,-1.7058,-1.7059,-1.7059,-1.7162,-1.7165,-1.7168,0,0,0,0,0,0,0,0,0,0,0,0,0,-1.6813,-1.6734,-1.6882,-1.693,-1.6936,-1.6989,-1.6991,-1.6992,-1.7058,-1.7058,-1.7059,-1.7059,-1.7161,-1.7165,-1.7168,-1.718,0,0,-1.7179,-1.7181,0,0,0,0,0,0,0,0,-1.6808,-1.6818,-1.6922,-1.6927,-1.6933,-1.7011,-1.6975,-1.7055,-1.7058,-1.7011,-1.7059,-1.706,-1.7112,-1.7119,-1.7138,-1.7185,-1.7189,-1.718,-1.7182,-1.7184,-1.7185,0,0,0,0,0,0,0,-1.6802,-1.6814,-1.6924,-1.6923,-1.693,-1.6946,-1.6958,-1.6991,-1.7057,-1.7015,-1.702,-1.7033,-1.7115,-1.7134,-1.7141,-1.7191,-1.718,-1.7183,-1.7185,-1.7187,-1.7254,-1.7253,0,0,0,0,0,0,-1.6789,-1.6809,-1.6921,-1.6927,-1.6871,-1.6948,-1.6962,-1.6985,-1.7057,-1.7068,-1.7032,-1.7035,-1.7128,-1.7137,-1.7145,-1.7164,-1.7183,-1.7187,-1.7189,-1.7254,-1.7254,-1.7253,0,0,0,0,0,0,-1.6786,-1.6799,-1.6917,-1.687,-1.6886,-1.695,-1.6976,-1.6987,-1.7007,-1.7069,-1.7081,-1.704,-1.7129,-1.714,-1.7171,-1.7168,-1.7189,-1.7192,-1.7254,-1.7254,-1.7253,-1.7201,0,0,0,0,0,0,-1.6781,-1.6797,-1.6803,-1.6869,-1.6888,-1.6942,-1.6976,-1.6989,-1.7014,-1.7019,-1.708,-1.7091,-1.713,-1.7166,-1.7175,-1.7174,-1.7195,-1.7255,-1.7254,-1.7254,-1.7204,-1.7199,-1.7195,0,0,0,0,0,-1.6776,-1.6782,-1.6803,-1.6816,-1.6897,-1.6942,-1.6952,-1.6999,-1.7013,-1.7019,-1.706,-1.7089,-1.7168,-1.7168,-1.7179,-1.7179,-1.7255,-1.7254,-1.7254,-1.7205,-1.72,-1.7195,0,0,0,0,0,0,-1.6711,-1.6792,-1.6815,-1.6844,-1.6886,-1.6953,-1.6962,-1.6992,-1.7029,-1.7032,-1.7087,-1.71,-1.7126,-1.7156,-1.7156,-1.7195,-1.7215,-1.7216,-1.7174,-1.717,-1.7166,-1.7157,-1.7198,0,0,0,0,0,-1.67,-1.6732,-1.68,-1.6818,-1.6839,-1.6896,-1.6918,-1.6951,-1.6996,-1.7013,-1.7056,-1.7097,-1.7131,-1.7152,-1.7187,-1.7209,-1.7223,-1.7214,-1.721,-1.7206,-1.7206,-1.7221,-1.7218,-1.725,-1.725,-1.725,0,0,-1.6678,-1.6726,-1.6742,-1.6807,-1.6843,-1.6874,-1.6911,-1.6941,-1.6964,-1.7017,-1.705,-1.7083,-1.7133,-1.716,-1.7174,-1.7185,-1.7201,-1.7205,-1.7202,-1.7204,-1.722,-1.7217,-1.7214,-1.725,-1.725,-1.725,0,0,-1.6652,-1.6692,-1.6713,-1.6749,-1.6805,-1.6844,-1.6849,-1.6913,-1.6937,-1.6972,-1.7014,-1.7041,-1.7098,-1.7133,-1.7157,-1.7148,-1.7177,-1.7158,-1.7135,-1.7149,-1.7147,-1.7145,-1.7142,-1.714,-1.7158,-1.7158,-1.7158,0,-1.6617,-1.6666,-1.6719,-1.6748,-1.6775,-1.6828,-1.6849,-1.6881,-1.6944,-1.6962,-1.6974,-1.705,-1.7086,-1.7123,-1.7121,-1.7139,-1.7146,-1.7151,-1.7143,-1.7142,-1.7141,-1.7139,-1.7137,-1.7155,-1.7156,-1.7156,-1.7156,0,-1.662,-1.6653,-1.6663,-1.6726,-1.6755,-1.6779,-1.6835,-1.6857,-1.6889,-1.6926,-1.6961,-1.7008,-1.7054,-1.7065,-1.7094,-1.7106,-1.7112,-1.7133,-1.7154,-1.7134,-1.7133,-1.7133,-1.7152,-1.7153,-1.7153,-1.7154,0,0,-1.6554,-1.6649,-1.6651,-1.6681,-1.6748,-1.6774,-1.6801,-1.6849,-1.6868,-1.691,-1.6934,-1.6983,-1.7004,-1.7032,-1.7066,-1.7078,-1.7069,-1.7099,-1.7101,-1.7092,-1.7086,-1.7069,-1.7068,-1.7089,-1.7089,-1.7089,-1.7082,0,-1.6538,-1.6592,-1.6642,-1.6677,-1.6709,-1.6761,-1.6785,-1.6827,-1.6864,-1.6895,-1.6935,-1.6969,-1.6994,-1.7011,-1.7026,-1.7067,-1.7069,-1.7069,-1.7111,-1.7112,-1.7097,-1.7067,-1.7049,-1.704,-1.7082,-1.7082,-1.7082,0,-1.6527,-1.657,-1.6609,-1.6675,-1.669,-1.6711,-1.676,-1.679,-1.684,-1.6865,-1.6898,-1.6935,-1.6966,-1.6985,-1.7027,-1.7026,-1.7047,-1.707,-1.7071,-1.7076,-1.7095,-1.7071,-1.7038,-1.7036,-1.7082,-1.7082,-1.7082,0,-1.6475,-1.6543,-1.6576,-1.66,-1.6678,-1.6691,-1.6724,-1.6775,-1.6801,-1.6843,-1.6861,-1.6905,-1.6929,-1.6962,-1.7009,-1.7019,-1.7047,-1.707,-1.7069,-1.7067,-1.7071,-1.707,-1.7041,-1.7085,-1.7085,-1.7085,-1.7085,0,-1.6452,-1.6474,-1.6554,-1.6574,-1.66,-1.6657,-1.6681,-1.6718,-1.6764,-1.6791,-1.6838,-1.6863,-1.6925,-1.6956,-1.6993,-1.7024,-1.7034,-1.7055,-1.7064,-1.705,-1.7048,-1.7064,-1.7065,-1.7085,-1.7085,-1.7085,-1.7085,0,-1.6398,-1.6453,-1.6492,-1.6564,-1.6583,-1.6599,-1.666,-1.668,-1.6721,-1.6755,-1.6766,-1.6828,-1.6869,-1.692,-1.6975,-1.7,-1.7026,-1.7041,-1.701,-1.7015,-1.7011,-1.7011,-1.699,-1.6991,-1.7035,-1.7034,-1.7034,0,-1.6379,-1.6398,-1.6473,-1.6496,-1.6528,-1.6564,-1.6592,-1.665,-1.6677,-1.6737,-1.6751,-1.6795,-1.6833,-1.6895,-1.6944,-1.6987,-1.7003,-1.6993,-1.7009,-1.6995,-1.7003,-1.7001,-1.7003,-1.6988,-1.6987,-1.6987,-1.6986,0,-1.6341,-1.6368,-1.6407,-1.6457,-1.649,-1.6531,-1.6574,-1.659,-1.6656,-1.6684,-1.6727,-1.6757,-1.6816,-1.6859,-1.6909,-1.6941,-1.6974,-1.6981,-1.6983,-1.6969,-1.695,-1.696,-1.6998,-1.6981,-1.6981,-1.6982,-1.6982,-1.6982,-1.6304,-1.6323,-1.638,-1.6423,-1.6463,-1.6503,-1.6527,-1.6571,-1.6609,-1.6663,-1.6694,-1.6736,-1.6788,-1.6859,-1.689,-1.6923,-1.6935,-1.6938,-1.6939,-1.6938,-1.6934,-1.6946,-1.6932,-1.6932,-1.6933,-1.6933,-1.6933,0,-1.6267,-1.6308,-1.6347,-1.6408,-1.6441,-1.6473,-1.6523,-1.6549,-1.6586,-1.6633,-1.6671,-1.6721,-1.6764,-1.6818,-1.6864,-1.688,-1.6896,-1.689,-1.6889,-1.6896,-1.692,-1.6914,-1.6876,-1.6876,-1.6876,-1.6876,-1.6876,-1.6876,-1.6252,-1.6288,-1.6322,-1.6378,-1.6417,-1.6461,-1.6487,-1.6524,-1.6562,-1.6616,-1.6653,-1.6689,-1.6739,-1.679,-1.6831,-1.6845,-1.686,-1.6849,-1.6868,-1.6889,-1.6894,-1.6899,-1.6893,-1.6852,-1.6852,-1.6841,-1.6841,-1.6841]}]]